Location: ???????
(55.4362°N, 38.1183°E)
Time: 17:24:00
(UTC+00:00)

Meteor 1-24 Rocket - Pass Details

Date: 17 June 2021
Orbit: 791 x 927 km, 81.3° (Epoch: 30 July)

Event Time Altitude Azimuth Distance (km) Brightness Sun altitude
Exits shadow 19:39:04 - 175° (S) 2,558 5.6 -7.8°
Reaches altitude 10° 19:39:33 10° 174° (S) 2,372 5.4 -7.8°
Maximum altitude 19:44:46 57° 97° (E) 961 3.9 -8.1°
Drops below altitude 10° 19:50:11 10° 20° (NNE) 2,456 6.9 -8.4°
Sets 19:52:40 0° 17° (NNE) 3,416 7.8 -8.5°
